{"data":{"norad_id":62589,"epoch":"2026-09-21T15:41:00.174336Z","epoch_age_seconds":71598,"freshness":"FRESH","line1":"1 62589U 25008C   26264.65347424  .00144985  00000+0  11124-2 0  9991","line2":"2 62589  43.0008  25.0165 0002298 288.7937  71.2682 15.70867743 96932","mean_motion":15.70867743,"eccentricity":0.0002298,"inclination_deg":43.0008,"raan_deg":25.0165,"arg_perigee_deg":288.7937,"mean_anomaly_deg":71.2682,"bstar":0.0011124,"rev_number":9693,"period_min":91.669079489144,"perigee_km":354.86816782329,"apogee_km":357.96336827549,"semimajor_km":6734.5527680494,"source":"CELESTRAK","updated_at":"2026-09-22T09:00:49.630861Z"}}